Time,TemperatureF,DewpointF,PressureIn,WindDirection,WindDirectionDegrees,WindSpeedMPH,WindSpeedGustMPH,Humidity,HourlyPrecipIn,Conditions,Clouds,dailyrainin,SoftwareType,DateUTC
2013-12-27 00:00:00,29.5,21.0,30.41,NNW,338,0.0,0.0,70,0.00,,,0.00,WUHU216HW,2013-12-27 05:00:00,
2013-12-27 00:01:00,29.5,21.0,30.41,NNW,338,0.0,0.0,70,0.00,,,0.00,WUHU216HW,2013-12-27 05:01:00,
2013-12-27 00:02:00,29.5,21.0,30.41,NNW,338,0.0,0.0,70,0.00,,,0.00,WUHU216HW,2013-12-27 05:02:00,
2013-12-27 00:08:00,29.5,21.0,30.41,NNW,338,0.0,0.0,70,0.00,,,0.00,WUHU216HW,2013-12-27 05:08:00,
2013-12-27 00:30:00,30.6,21.6,30.40,NNE,23,0.0,0.0,69,0.00,,,0.00,WUHU216HW,2013-12-27 05:30:00,
2013-12-27 00:35:00,30.6,21.6,30.40,NNE,23,0.0,0.0,69,0.00,,,0.00,WUHU216HW,2013-12-27 05:35:00,
2013-12-27 01:00:00,29.5,20.6,30.41,North,0,0.0,0.0,69,0.00,,,0.00,WUHU216HW,2013-12-27 06:00:00,
2013-12-27 01:05:00,29.5,20.6,30.41,North,0,0.0,0.0,69,0.00,,,0.00,WUHU216HW,2013-12-27 06:05:00,
2013-12-27 01:30:00,30.4,21.1,30.40,NNE,23,0.2,0.2,68,0.00,,,0.00,WUHU216HW,2013-12-27 06:30:00,
2013-12-27 01:35:00,30.4,21.1,30.40,NNE,23,0.2,0.2,68,0.00,,,0.00,WUHU216HW,2013-12-27 06:35:00,
2013-12-27 02:00:00,30.2,20.5,30.41,North,0,0.7,0.7,67,0.00,,,0.00,WUHU216HW,2013-12-27 07:00:00,
2013-12-27 02:05:00,30.2,20.5,30.41,North,0,0.7,0.7,67,0.00,,,0.00,WUHU216HW,2013-12-27 07:05:00,
2013-12-27 02:30:00,29.3,19.7,30.42,North,0,0.0,0.0,67,0.00,,,0.00,WUHU216HW,2013-12-27 07:30:00,
2013-12-27 02:35:00,29.3,19.7,30.42,North,0,0.0,0.0,67,0.00,,,0.00,WUHU216HW,2013-12-27 07:35:00,
2013-12-27 02:59:00,29.5,19.9,30.43,North,0,0.0,0.0,67,0.00,,,0.00,WUHU216HW,2013-12-27 07:59:00,
2013-12-27 03:00:00,29.5,19.9,30.43,North,0,0.0,0.0,67,0.00,,,0.00,WUHU216HW,2013-12-27 08:00:00,
2013-12-27 03:05:00,29.5,19.9,30.43,North,0,0.0,0.0,67,0.00,,,0.00,WUHU216HW,2013-12-27 08:05:00,
2013-12-27 03:30:00,30.4,20.3,30.43,North,0,0.0,0.0,66,0.00,,,0.00,WUHU216HW,2013-12-27 08:30:00,
2013-12-27 03:35:00,30.4,20.3,30.43,North,0,0.0,0.0,66,0.00,,,0.00,WUHU216HW,2013-12-27 08:35:00,
2013-12-27 03:59:00,29.7,19.7,30.43,NNE,23,0.0,0.0,66,0.00,,,0.00,WUHU216HW,2013-12-27 08:59:00,
2013-12-27 04:00:00,29.7,19.7,30.43,NNE,23,0.0,0.0,66,0.00,,,0.00,WUHU216HW,2013-12-27 09:00:00,
2013-12-27 04:05:00,29.7,19.7,30.43,NNE,23,0.0,0.0,66,0.00,,,0.00,WUHU216HW,2013-12-27 09:05:00,
2013-12-27 04:30:00,29.9,19.8,30.43,NNE,23,0.2,0.2,66,0.00,,,0.00,WUHU216HW,2013-12-27 09:30:00,
2013-12-27 04:35:00,29.9,19.8,30.43,NNE,23,0.2,0.2,66,0.00,,,0.00,WUHU216HW,2013-12-27 09:35:00,
2013-12-27 04:59:00,29.7,19.7,30.43,North,0,0.0,0.0,66,0.00,,,0.00,WUHU216HW,2013-12-27 09:59:00,
2013-12-27 05:00:00,29.7,19.7,30.43,North,0,0.0,0.0,66,0.00,,,0.00,WUHU216HW,2013-12-27 10:00:00,
2013-12-27 05:05:00,29.7,19.7,30.43,North,0,0.0,0.0,66,0.00,,,0.00,WUHU216HW,2013-12-27 10:05:00,
2013-12-27 05:30:00,29.5,19.9,30.43,North,0,0.0,0.0,67,0.00,,,0.00,WUHU216HW,2013-12-27 10:30:00,
2013-12-27 05:35:00,29.5,19.9,30.43,North,0,0.0,0.0,67,0.00,,,0.00,WUHU216HW,2013-12-27 10:35:00,
2013-12-27 05:59:00,29.0,19.0,30.43,North,0,0.0,0.0,66,0.00,,,0.00,WUHU216HW,2013-12-27 10:59:00,
2013-12-27 06:00:00,29.0,19.0,30.43,North,0,0.0,0.0,66,0.00,,,0.00,WUHU216HW,2013-12-27 11:00:00,
2013-12-27 06:05:00,29.0,19.0,30.43,North,0,0.0,0.0,66,0.00,,,0.00,WUHU216HW,2013-12-27 11:05:00,
2013-12-27 06:30:00,27.7,18.5,30.44,North,0,0.0,0.0,68,0.00,,,0.00,WUHU216HW,2013-12-27 11:30:00,
2013-12-27 06:35:00,27.7,18.5,30.44,North,0,0.0,0.0,68,0.00,,,0.00,WUHU216HW,2013-12-27 11:35:00,
2013-12-27 06:59:00,27.0,18.5,30.44,North,0,0.0,0.0,70,0.00,,,0.00,WUHU216HW,2013-12-27 11:59:00,
2013-12-27 07:00:00,27.0,18.5,30.44,North,0,0.0,0.0,70,0.00,,,0.00,WUHU216HW,2013-12-27 12:00:00,
2013-12-27 07:05:00,27.0,18.5,30.44,North,0,0.0,0.0,70,0.00,,,0.00,WUHU216HW,2013-12-27 12:05:00,
2013-12-27 07:30:00,27.7,19.5,30.44,North,0,0.0,0.0,71,0.00,,,0.00,WUHU216HW,2013-12-27 12:30:00,
2013-12-27 07:35:00,27.7,19.5,30.44,North,0,0.0,0.0,71,0.00,,,0.00,WUHU216HW,2013-12-27 12:35:00,
2013-12-27 07:59:00,28.1,19.9,30.45,North,0,0.0,0.0,71,0.00,,,0.00,WUHU216HW,2013-12-27 12:59:00,
2013-12-27 08:00:00,28.1,19.9,30.45,North,0,0.0,0.0,71,0.00,,,0.00,WUHU216HW,2013-12-27 13:00:00,
2013-12-27 08:05:00,28.1,19.9,30.45,North,0,0.0,0.0,71,0.00,,,0.00,WUHU216HW,2013-12-27 13:05:00,
2013-12-27 08:30:00,29.3,21.1,30.45,North,0,0.0,0.0,71,0.00,,,0.00,WUHU216HW,2013-12-27 13:30:00,
2013-12-27 08:35:00,29.3,21.1,30.45,North,0,0.0,0.0,71,0.00,,,0.00,WUHU216HW,2013-12-27 13:35:00,
2013-12-27 08:59:00,31.9,23.6,30.46,North,0,0.0,0.0,71,0.00,,,0.00,WUHU216HW,2013-12-27 13:59:00,
2013-12-27 09:00:00,31.9,23.6,30.46,North,0,0.0,0.0,71,0.00,,,0.00,WUHU216HW,2013-12-27 14:00:00,
2013-12-27 09:05:00,31.9,23.6,30.46,North,0,0.0,0.0,71,0.00,,,0.00,WUHU216HW,2013-12-27 14:05:00,
2013-12-27 09:30:00,34.9,26.1,30.47,SW,225,0.0,0.0,70,0.00,,,0.00,WUHU216HW,2013-12-27 14:30:00,
2013-12-27 09:35:00,34.9,26.1,30.47,SW,225,0.0,0.0,70,0.00,,,0.00,WUHU216HW,2013-12-27 14:35:00,
2013-12-27 09:59:00,37.4,27.1,30.47,WNW,293,2.0,2.0,66,0.00,,,0.00,WUHU216HW,2013-12-27 14:59:00,
2013-12-27 10:00:00,37.4,27.1,30.47,WNW,293,2.0,2.0,66,0.00,,,0.00,WUHU216HW,2013-12-27 15:00:00,
2013-12-27 10:05:00,37.4,27.1,30.47,WNW,293,2.0,2.0,66,0.00,,,0.00,WUHU216HW,2013-12-27 15:05:00,
2013-12-27 10:30:00,39.2,27.6,30.48,NE,45,1.1,1.1,63,0.00,,,0.00,WUHU216HW,2013-12-27 15:30:00,
2013-12-27 10:35:00,39.2,27.6,30.48,NE,45,1.1,1.1,63,0.00,,,0.00,WUHU216HW,2013-12-27 15:35:00,
2013-12-27 10:59:00,40.9,28.4,30.47,NE,45,0.4,0.4,61,0.00,,,0.00,WUHU216HW,2013-12-27 15:59:00,
2013-12-27 11:00:00,40.9,28.4,30.47,NE,45,0.4,0.4,61,0.00,,,0.00,WUHU216HW,2013-12-27 16:00:00,
2013-12-27 11:05:00,40.9,28.4,30.47,NE,45,0.4,0.4,61,0.00,,,0.00,WUHU216HW,2013-12-27 16:05:00,
2013-12-27 11:29:00,42.5,28.3,30.45,North,0,4.0,4.0,57,0.00,,,0.00,WUHU216HW,2013-12-27 16:29:00,
2013-12-27 11:30:00,42.5,28.3,30.45,North,0,4.0,4.0,57,0.00,,,0.00,WUHU216HW,2013-12-27 16:30:00,
2013-12-27 11:35:00,42.5,28.3,30.45,North,0,4.0,4.0,57,0.00,,,0.00,WUHU216HW,2013-12-27 16:35:00,
2013-12-27 11:59:00,43.9,27.9,30.44,North,0,4.7,4.7,53,0.00,,,0.00,WUHU216HW,2013-12-27 16:59:00,
2013-12-27 12:00:00,43.9,27.9,30.44,North,0,4.7,4.7,53,0.00,,,0.00,WUHU216HW,2013-12-27 17:00:00,
2013-12-27 12:05:00,43.9,27.9,30.44,North,0,4.7,4.7,53,0.00,,,0.00,WUHU216HW,2013-12-27 17:05:00,
2013-12-27 12:29:00,45.4,29.2,30.43,NNW,338,2.0,2.0,53,0.00,,,0.00,WUHU216HW,2013-12-27 17:29:00,
2013-12-27 12:30:00,45.4,29.2,30.43,NNW,338,2.0,2.0,53,0.00,,,0.00,WUHU216HW,2013-12-27 17:30:00,
2013-12-27 12:35:00,45.4,29.2,30.43,NNW,338,2.0,2.0,53,0.00,,,0.00,WUHU216HW,2013-12-27 17:35:00,
2013-12-27 13:00:00,46.4,28.8,30.41,SE,135,0.4,0.4,50,0.00,,,0.00,WUHU216HW,2013-12-27 18:00:00,
2013-12-27 13:05:00,46.4,28.8,30.41,SE,135,0.4,0.4,50,0.00,,,0.00,WUHU216HW,2013-12-27 18:05:00,
2013-12-27 13:30:00,45.0,27.6,30.40,NE,45,0.4,0.4,50,0.00,,,0.00,WUHU216HW,2013-12-27 18:30:00,
2013-12-27 13:35:00,45.0,27.6,30.40,NE,45,0.4,0.4,50,0.00,,,0.00,WUHU216HW,2013-12-27 18:35:00,
2013-12-27 14:00:00,47.0,28.2,30.38,ENE,68,0.4,0.4,48,0.00,,,0.00,WUHU216HW,2013-12-27 19:00:00,
2013-12-27 14:05:00,47.0,28.2,30.38,ENE,68,0.4,0.4,48,0.00,,,0.00,WUHU216HW,2013-12-27 19:05:00,
2013-12-27 14:30:00,47.7,28.4,30.37,North,0,1.1,1.1,47,0.00,,,0.00,WUHU216HW,2013-12-27 19:30:00,
2013-12-27 14:35:00,47.7,28.4,30.37,North,0,1.1,1.1,47,0.00,,,0.00,WUHU216HW,2013-12-27 19:35:00,
2013-12-27 15:00:00,48.2,28.3,30.37,SW,225,1.6,1.6,46,0.00,,,0.00,WUHU216HW,2013-12-27 20:00:00,
2013-12-27 15:05:00,48.2,28.3,30.37,SW,225,1.6,1.6,46,0.00,,,0.00,WUHU216HW,2013-12-27 20:05:00,
2013-12-27 15:30:00,48.2,27.7,30.37,North,0,2.5,2.5,45,0.00,,,0.00,WUHU216HW,2013-12-27 20:30:00,
2013-12-27 15:35:00,48.2,27.7,30.37,North,0,2.5,2.5,45,0.00,,,0.00,WUHU216HW,2013-12-27 20:35:00,
2013-12-27 15:59:00,47.7,27.3,30.36,North,0,1.3,1.3,45,0.00,,,0.00,WUHU216HW,2013-12-27 20:59:00,
2013-12-27 16:00:00,47.7,27.3,30.36,North,0,1.3,1.3,45,0.00,,,0.00,WUHU216HW,2013-12-27 21:00:00,
2013-12-27 16:05:00,47.7,27.3,30.36,North,0,1.3,1.3,45,0.00,,,0.00,WUHU216HW,2013-12-27 21:05:00,
2013-12-27 16:29:00,46.4,26.6,30.36,North,0,0.0,0.0,46,0.00,,,0.00,WUHU216HW,2013-12-27 21:29:00,
2013-12-27 16:30:00,46.4,26.6,30.36,North,0,0.0,0.0,46,0.00,,,0.00,WUHU216HW,2013-12-27 21:30:00,
2013-12-27 16:35:00,46.4,26.6,30.36,North,0,0.0,0.0,46,0.00,,,0.00,WUHU216HW,2013-12-27 21:35:00,
2013-12-27 16:59:00,44.3,25.7,30.36,North,0,0.4,0.4,48,0.00,,,0.00,WUHU216HW,2013-12-27 21:59:00,
2013-12-27 17:00:00,44.3,25.7,30.36,North,0,0.4,0.4,48,0.00,,,0.00,WUHU216HW,2013-12-27 22:00:00,
2013-12-27 17:05:00,44.3,25.7,30.36,North,0,0.4,0.4,48,0.00,,,0.00,WUHU216HW,2013-12-27 22:05:00,
2013-12-27 17:29:00,42.1,24.3,30.37,North,0,0.0,0.0,49,0.00,,,0.00,WUHU216HW,2013-12-27 22:29:00,
2013-12-27 17:30:00,42.1,24.3,30.37,North,0,0.0,0.0,49,0.00,,,0.00,WUHU216HW,2013-12-27 22:30:00,
2013-12-27 17:35:00,42.1,24.3,30.37,North,0,0.0,0.0,49,0.00,,,0.00,WUHU216HW,2013-12-27 22:35:00,
2013-12-27 17:59:00,40.7,24.3,30.37,North,0,0.0,0.0,52,0.00,,,0.00,WUHU216HW,2013-12-27 22:59:00,
2013-12-27 18:00:00,40.7,24.3,30.37,North,0,0.0,0.0,52,0.00,,,0.00,WUHU216HW,2013-12-27 23:00:00,
2013-12-27 18:05:00,40.7,24.3,30.37,North,0,0.0,0.0,52,0.00,,,0.00,WUHU216HW,2013-12-27 23:05:00,
2013-12-27 18:29:00,39.8,24.4,30.38,NNW,338,0.2,0.2,54,0.00,,,0.00,WUHU216HW,2013-12-27 23:29:00,
2013-12-27 18:30:00,39.8,24.4,30.38,NNW,338,0.2,0.2,54,0.00,,,0.00,WUHU216HW,2013-12-27 23:30:00,
2013-12-27 18:35:00,39.8,24.4,30.38,NNW,338,0.2,0.2,54,0.00,,,0.00,WUHU216HW,2013-12-27 23:35:00,
2013-12-27 18:59:00,38.9,23.9,30.39,North,0,0.0,0.0,55,0.00,,,0.00,WUHU216HW,2013-12-27 23:59:00,
2013-12-27 19:00:00,38.9,23.9,30.39,North,0,0.0,0.0,55,0.00,,,0.00,WUHU216HW,2013-12-28 00:00:00,
2013-12-27 19:05:00,38.9,23.9,30.39,North,0,0.0,0.0,55,0.00,,,0.00,WUHU216HW,2013-12-28 00:05:00,
2013-12-27 19:30:00,38.0,24.0,30.40,NE,45,0.4,0.4,57,0.00,,,0.00,WUHU216HW,2013-12-28 00:30:00,
2013-12-27 19:35:00,38.0,24.0,30.40,NE,45,0.4,0.4,57,0.00,,,0.00,WUHU216HW,2013-12-28 00:35:00,
2013-12-27 19:59:00,37.8,24.3,30.40,North,0,0.0,0.0,58,0.00,,,0.00,WUHU216HW,2013-12-28 00:59:00,
2013-12-27 20:00:00,37.8,24.3,30.40,North,0,0.0,0.0,58,0.00,,,0.00,WUHU216HW,2013-12-28 01:00:00,
2013-12-27 20:05:00,37.8,24.3,30.40,North,0,0.0,0.0,58,0.00,,,0.00,WUHU216HW,2013-12-28 01:05:00,
2013-12-27 20:07:00,37.8,24.3,30.40,North,0,0.0,0.0,58,0.00,,,0.00,WUHU216HW,2013-12-28 01:07:00,
2013-12-27 20:29:00,36.4,23.4,30.40,North,0,0.0,0.0,59,0.00,,,0.00,WUHU216HW,2013-12-28 01:29:00,
2013-12-27 20:30:00,36.4,23.4,30.40,North,0,0.0,0.0,59,0.00,,,0.00,WUHU216HW,2013-12-28 01:30:00,
2013-12-27 20:35:00,36.4,23.4,30.40,North,0,0.0,0.0,59,0.00,,,0.00,WUHU216HW,2013-12-28 01:35:00,
2013-12-27 20:59:00,35.6,23.2,30.40,North,0,0.0,0.0,60,0.00,,,0.00,WUHU216HW,2013-12-28 01:59:00,
2013-12-27 21:00:00,35.6,23.2,30.40,North,0,0.0,0.0,60,0.00,,,0.00,WUHU216HW,2013-12-28 02:00:00,
2013-12-27 21:05:00,35.6,23.2,30.40,North,0,0.0,0.0,60,0.00,,,0.00,WUHU216HW,2013-12-28 02:05:00,
2013-12-27 21:29:00,34.4,22.3,30.40,North,0,1.1,1.1,61,0.00,,,0.00,WUHU216HW,2013-12-28 02:29:00,
2013-12-27 21:30:00,34.4,22.3,30.40,North,0,1.1,1.1,61,0.00,,,0.00,WUHU216HW,2013-12-28 02:30:00,
2013-12-27 21:35:00,34.4,22.3,30.40,North,0,1.1,1.1,61,0.00,,,0.00,WUHU216HW,2013-12-28 02:35:00,
2013-12-27 21:59:00,33.7,22.3,30.40,North,0,0.0,0.0,63,0.00,,,0.00,WUHU216HW,2013-12-28 02:59:00,
2013-12-27 22:00:00,33.7,22.3,30.40,North,0,0.0,0.0,63,0.00,,,0.00,WUHU216HW,2013-12-28 03:00:00,
2013-12-27 22:05:00,33.7,22.3,30.40,North,0,0.0,0.0,63,0.00,,,0.00,WUHU216HW,2013-12-28 03:05:00,
2013-12-27 22:30:00,33.5,22.5,30.39,North,0,0.0,0.0,64,0.00,,,0.00,WUHU216HW,2013-12-28 03:30:00,
2013-12-27 22:35:00,33.5,22.5,30.39,North,0,0.0,0.0,64,0.00,,,0.00,WUHU216HW,2013-12-28 03:35:00,
2013-12-27 22:59:00,33.5,22.5,30.38,West,270,0.0,0.0,64,0.00,,,0.00,WUHU216HW,2013-12-28 03:59:00,
2013-12-27 23:00:00,33.5,22.5,30.38,West,270,0.0,0.0,64,0.00,,,0.00,WUHU216HW,2013-12-28 04:00:00,
2013-12-27 23:05:00,33.5,22.5,30.38,West,270,0.0,0.0,64,0.00,,,0.00,WUHU216HW,2013-12-28 04:05:00,
2013-12-27 23:30:00,32.8,22.6,30.38,North,0,0.2,0.2,66,0.00,,,0.00,WUHU216HW,2013-12-28 04:30:00,
2013-12-27 23:35:00,32.8,22.6,30.38,North,0,0.2,0.2,66,0.00,,,0.00,WUHU216HW,2013-12-28 04:35:00,
2013-12-27 23:59:00,32.9,22.8,30.38,North,0,0.0,0.0,66,0.00,,,0.00,WUHU216HW,2013-12-28 04:59:00,